Wind_Speed
38 39 38 38 38 37 38 38 39 40 41 41 41 41 40 40 40 40 40 39 39 38 38 37 37 37 36 36 36 35 35 34 34 34 33 33 33 33 33 33 33 33 33
37 37 38 39 38 38 38 39 40 40 41 41 41 42 42 41 41 42 42 41 41 40 40 39 38 38 38 37 37 37 36 36 35 35 35 34 34 34 34 34 34 34 34
37 37 38 39 39 38 38 39 40 40 42 43 43 43 43 43 43 43 43 43 43 42 42 41 40 40 40 39 39 38 38 37 36 36 36 36 35 35 35 36 35 35 35
36 37 38 39 39 39 39 40 41 41 42 43 43 44 45 45 44 44 44 44 45 44 43 43 42 42 42 41 40 39 39 39 38 38 38 38 37 37 37 37 37 37 37
37 37 38 39 39 40 41 41 42 42 42 42 43 43 44 45 46 46 45 46 46 46 45 45 44 43 43 42 42 41 40 39 39 39 39 39 39 38 38 37 38 38 39
36 37 38 39 39 40 41 42 43 44 44 44 44 44 44 45 46 46 46 46 46 46 47 46 45 45 44 43 43 42 42 41 41 40 41 41 41 40 39 39 39 40 40
37 37 38 39 40 40 41 41 43 44 45 44 44 44 45 45 46 47 47 47 47 48 47 47 46 46 46 45 45 44 43 43 43 42 42 43 42 41 41 41 41 41 41
37 38 38 39 39 40 41 41 42 44 45 45 45 44 46 46 46 47 47 47 48 49 49 49 48 48 48 47 46 46 45 45 44 44 44 43 43 43 43 43 42 43 43
36 38 38 39 39 40 41 41 43 44 45 46 47 47 47 47 47 48 48 48 48 48 49 50 49 48 48 48 47 47 47 46 46 45 46 45 44 44 44 45 45 44 44
34 36 37 38 39 40 40 41 42 44 45 46 47 47 48 48 49 49 49 50 50 49 50 50 50 50 49 49 49 49 48 47 47 47 46 47 46 46 47 47 46 46 47
35 36 37 38 38 39 40 42 43 43 44 45 47 48 49 49 49 49 49 50 50 50 50 50 51 51 50 50 50 49 49 48 48 48 48 48 48 47 48 48 48 48 48
34 36 37 38 38 39 40 41 42 43 43 44 45 45 47 48 48 49 49 49 49 50 50 50 50 51 51 51 51 50 50 50 49 49 49 49 48 49 49 49 49 49 49
35 35 36 38 38 38 40 41 42 42 43 43 44 44 45 46 47 48 48 48 48 49 50 49 49 50 50 51 50 51 51 51 50 49 49 50 50 50 49 49 50 50 49
34 35 35 37 38 38 39 40 41 41 42 43 43 43 44 45 46 47 47 48 49 49 49 48 49 49 49 49 49 50 49 49 49 49 49 50 50 50 51 51 51 51 51
32 33 34 35 36 37 38 39 40 41 41 42 43 43 43 44 44 45 46 46 47 48 49 49 49 49 49 48 48 49 50 49 49 50 50 50 51 51 51 52 52 52 52
31 32 33 33 34 35 36 37 39 40 42 42 42 43 43 43 44 45 46 47 47 48 47 48 49 49 49 49 49 50 50 50 50 51 52 52 52 52 53 52 52 53 53
30 31 32 32 33 34 35 36 38 39 40 41 42 42 43 43 43 44 46 47 47 47 47 47 48 49 49 50 49 50 51 51 51 51 52 52 52 53 52 52 53 53 53
30 30 31 32 33 33 34 35 36 38 39 40 40 41 42 42 42 43 44 45 46 47 47 46 47 48 48 49 50 50 51 51 52 53 54 53 53 52 52 51 51 52 52
29 29 30 31 31 32 33 33 34 36 38 39 40 40 40 41 42 43 44 44 44 45 46 46 46 47 47 48 49 50 51 51 52 52 53 53 52 51 51 51 50 50 51
29 29 29 30 30 31 32 32 33 35 36 37 37 38 39 39 40 41 42 43 43 44 46 47 46 46 47 48 48 50 51 51 51 52 53 53 53 52 51 51 51 51 51
30 30 30 30 30 31 32 31 32 33 35 36 37 38 39 40 40 41 41 42 42 44 45 46 47 46 46 47 48 49 50 50 50 50 51 51 51 52 52 52 52 52 51
30 30 30 30 30 30 31 31 31 32 33 34 36 37 38 39 40 40 40 41 43 44 44 45 46 46 46 46 47 48 48 49 49 49 48 49 49 50 51 51 51 51 51
30 29 29 30 30 30 30 31 32 32 32 33 34 35 36 37 38 39 40 41 42 42 43 43 44 45 45 45 46 47 48 48 49 49 49 49 49 50 51 51 52 52 52
29 29 28 28 29 30 29 30 31 32 32 32 33 34 35 36 36 37 38 39 40 40 41 41 42 42 44 44 45 46 46 47 48 48 49 49 50 50 50 51 52 52 52
28 28 27 28 28 29 30 31 31 32 32 32 32 33 34 35 35 36 37 38 38 39 40 41 41 41 42 43 45 45 45 46 47 47 48 49 50 51 51 51 51 51 51
27 27 27 27 27 27 28 29 29 30 31 31 31 32 32 33 35 35 36 37 38 38 39 40 41 41 41 43 44 44 44 45 46 47 47 48 48 49 49 49 49 50 50
Wind_Direction
245 245 244 243 243 243 242 241 240 240 240 240 240 240 241 241 241 242 243 244 244 246 247 248 250 251 252 253 253 254 256 256 257 258 259 259 260 261 261 262 263 263 264
246 245 244 244 244 243 243 242 241 240 240 239 240 241 241 242 242 243 243 244 245 246 247 248 249 251 252 254 254 255 255 256 258 258 258 259 260 260 261 262 263 264 264
247 247 246 245 245 244 243 242 242 241 241 241 241 242 243 243 244 245 245 245 245 246 247 248 249 250 252 253 254 255 255 257 258 258 258 259 259 260 261 262 264 265 264
246 247 247 246 245 244 243 242 241 241 242 242 242 243 244 243 244 245 246 246 246 246 247 248 249 251 252 252 254 255 256 257 258 259 259 260 260 262 262 263 264 264 264
247 246 245 245 245 244 245 243 241 241 242 242 242 244 244 243 244 245 246 247 246 246 247 248 249 250 251 252 253 254 256 257 258 259 260 260 261 262 263 264 264 264 264
248 248 246 245 245 245 245 245 243 242 242 243 243 244 245 245 245 245 247 248 247 246 247 248 249 249 251 253 254 255 256 257 258 259 259 260 261 262 263 264 265 264 264
250 249 247 246 245 246 247 247 246 244 244 245 245 245 246 247 246 246 247 248 248 247 247 248 249 250 252 254 255 255 256 257 258 259 260 261 261 262 263 265 265 264 264
249 249 248 247 247 248 248 248 249 247 246 246 246 246 246 247 247 247 247 249 249 248 248 249 250 251 252 253 255 255 256 257 258 259 259 260 261 263 264 265 265 265 264
250 248 249 249 249 249 250 250 250 249 248 248 248 248 247 248 248 248 248 248 249 249 249 249 250 252 253 253 254 254 256 257 258 259 259 259 261 263 264 265 266 266 265
254 250 250 250 249 250 251 252 251 250 250 249 249 249 249 249 248 249 249 249 250 250 250 250 250 251 252 253 254 255 257 257 258 260 261 261 262 263 264 265 266 265 265
257 255 253 251 252 252 253 253 252 252 252 251 251 250 249 250 250 250 250 250 250 250 250 249 250 251 252 252 254 256 258 257 258 260 261 262 262 263 265 265 265 266 265
259 258 256 254 253 254 254 254 255 254 254 253 252 251 250 250 249 249 249 249 249 249 250 250 251 251 252 253 253 255 257 258 259 260 261 262 262 263 264 265 265 266 266
261 260 259 258 257 257 256 255 256 256 255 254 253 251 250 249 249 248 248 249 249 250 250 250 251 252 253 253 253 254 256 258 259 260 261 262 263 264 264 265 265 266 266
263 262 262 261 259 259 257 257 256 255 254 253 253 251 250 249 249 249 249 249 250 251 250 249 250 252 252 252 253 254 255 257 258 260 262 263 263 264 264 265 266 266 266
265 264 264 264 262 261 259 257 256 255 252 252 252 251 249 249 249 249 249 249 250 250 250 250 251 252 252 252 253 255 255 256 258 260 261 262 263 264 265 265 265 266 266
267 266 266 266 265 263 261 258 257 254 253 252 251 250 249 249 249 249 249 250 251 250 250 252 252 252 252 252 253 254 257 258 258 260 261 262 263 264 265 265 265 266 265
267 268 267 267 267 266 263 260 258 255 253 252 251 250 249 250 250 250 251 252 251 251 252 252 253 253 253 253 254 255 256 258 258 259 261 261 262 264 264 264 264 265 265
270 270 270 269 268 267 266 263 259 256 254 252 252 250 249 250 250 252 252 252 252 252 252 253 254 254 255 255 255 256 257 258 258 259 260 261 263 263 264 265 264 264 265
272 272 271 270 268 268 267 265 260 258 255 253 252 251 250 251 252 253 252 252 252 252 253 254 255 256 257 257 257 257 258 259 260 260 260 262 263 264 265 265 265 265 266
273 273 272 271 270 269 268 266 262 260 257 254 252 252 251 252 252 253 253 253 253 253 253 254 255 257 258 258 258 258 258 259 260 261 262 262 263 263 264 264 265 266 266
274 273 272 272 271 270 268 267 264 261 258 256 254 253 252 253 253 254 254 254 254 254 253 255 255 256 258 259 259 259 259 259 260 262 263 263 263 263 264 265 266 266 267
275 274 273 272 272 271 269 267 265 264 261 258 256 255 254 254 255 254 254 254 255 255 256 257 257 258 259 260 260 260 261 261 261 262 262 263 263 263 264 266 267 267 268
275 274 274 273 272 271 270 268 266 265 264 261 257 256 256 255 255 255 256 256 256 257 258 258 258 258 258 259 260 261 261 262 262 262 261 261 262 262 263 265 266 267 268
274 274 275 274 272 271 271 269 266 265 265 264 260 258 257 256 255 256 257 256 257 257 258 258 259 258 258 259 261 262 262 262 262 262 261 261 262 263 264 265 266 267 268
273 273 275 275 274 272 271 271 269 267 265 264 262 260 258 257 257 257 257 256 256 257 258 259 259 259 260 261 262 263 263 262 263 263 263 263 263 264 264 265 266 267 268
275 274 275 275 274 273 272 272 270 268 266 264 262 261 260 259 258 258 258 258 258 259 260 260 260 261 262 263 263 263 263 264 264 265 265 265 265 265 265 265 266 267 268
Height
5684 5686 5688 5690 5693 5696 5698 5701 5704 5708 5711 5714 5718 5721 5724 5727 5730 5733 5736 5739 5742 5744 5746 5749 5751 5752 5754 5756 5757 5759 5760 5761 5763 5764 5764 5765 5766 5767 5768 5769 5770 5771 5771
5674 5677 5679 5681 5684 5687 5689 5692 5695 5699 5702 5705 5708 5712 5715 5718 5721 5724 5727 5730 5733 5735 5738 5740 5742 5744 5746 5747 5749 5750 5752 5753 5754 5756 5757 5758 5759 5759 5760 5761 5762 5763 5763
5665 5667 5670 5672 5675 5678 5681 5684 5686 5690 5692 5695 5699 5702 5705 5708 5711 5714 5717 5720 5723 5726 5728 5731 5733 5735 5737 5739 5740 5742 5743 5744 5746 5747 5748 5749 5751 5751 5752 5753 5754 5754 5755
5655 5658 5660 5663 5665 5668 5671 5674 5677 5680 5683 5685 5689 5692 5695 5698 5701 5704 5707 5710 5713 5715 5718 5721 5723 5725 5727 5729 5731 5732 5734 5735 5736 5737 5739 5740 5741 5743 5744 5744 5745 5745 5746
5646 5648 5651 5653 5655 5658 5661 5664 5666 5670 5672 5675 5678 5681 5684 5687 5691 5694 5696 5699 5702 5705 5707 5710 5713 5715 5717 5719 5721 5723 5724 5726 5727 5728 5729 5730 5731 5733 5734 5735 5735 5736 5737
5636 5639 5641 5643 5645 5648 5650 5653 5656 5659 5662 5665 5668 5671 5674 5677 5680 5683 5685 5688 5691 5694 5696 5699 5702 5704 5706 5708 5710 5712 5714 5715 5717 5718 5719 5720 5721 5723 5724 5725 5725 5726 5726
5626 5628 5630 5633 5635 5638 5640 5643 5645 5648 5651 5654 5656 5659 5662 5665 5668 5672 5675 5677 5680 5683 5685 5688 5691 5693 5695 5698 5699 5701 5703 5704 5706 5707 5709 5710 5711 5712 5713 5714 5715 5715 5716
5616 5618 5620 5622 5625 5627 5630 5632 5634 5637 5639 5642 5645 5647 5650 5654 5657 5660 5663 5665 5668 5671 5674 5676 5679 5682 5684 5686 5688 5690 5692 5693 5694 5696 5697 5699 5700 5701 5702 5703 5704 5705 5705
5606 5608 5610 5612 5614 5617 5619 5621 5623 5625 5628 5630 5632 5635 5638 5641 5644 5647 5650 5653 5656 5658 5661 5664 5667 5669 5672 5674 5676 5678 5680 5682 5683 5685 5686 5687 5688 5689 5691 5692 5692 5693 5694
5596 5597 5599 5601 5603 5606 5608 5609 5611 5613 5615 5617 5620 5623 5625 5628 5631 5634 5637 5640 5643 5645 5648 5651 5654 5657 5659 5662 5664 5666 5668 5669 5671 5673 5674 5676 5677 5678 5679 5679 5680 5680 5681
5586 5587 5589 5591 5592 5594 5596 5597 5599 5601 5603 5605 5607 5609 5612 5614 5617 5620 5623 5626 5629 5632 5635 5638 5641 5644 5647 5649 5652 5654 5655 5657 5659 5661 5662 5663 5665 5666 5667 5667 5668 5668 5668
5576 5577 5578 5580 5581 5582 5584 5585 5587 5588 5590 5592 5594 5596 5598 5601 5604 5607 5610 5613 5616 5619 5622 5625 5628 5630 5633 5636 5639 5641 5643 5645 5647 5648 5650 5651 5652 5653 5654 5655 5655 5655 5655
5566 5567 5568 5569 5569 5570 5572 5573 5574 5575 5577 5579 5580 5583 5585 5588 5591 5594 5597 5600 5603 5606 5609 5612 5615 5617 5620 5623 5625 5628 5630 5632 5634 5635 5637 5638 5639 5640 5641 5641 5642 5642 5642
5556 5556 5557 5558 5558 5558 5559 5560 5561 5563 5564 5566 5568 5570 5573 5575 5578 5581 5584 5587 5590 5593 5595 5599 5602 5604 5607 5609 5612 5614 5617 5619 5620 5622 5623 5625 5626 5627 5627 5628 5628 5628 5628
5546 5546 5546 5547 5547 5547 5548 5548 5549 5550 5552 5553 5555 5558 5560 5563 5565 5568 5571 5574 5577 5580 5583 5586 5588 5591 5593 5596 5599 5601 5603 5605 5607 5608 5610 5611 5612 5612 5613 5614 5614 5614 5614
5536 5536 5536 5536 5536 5536 5536 5537 5537 5538 5539 5541 5543 5545 5548 5551 5553 5556 5558 5561 5564 5567 5569 5572 5575 5577 5580 5583 5585 5588 5589 5591 5593 5595 5596 5597 5597 5598 5599 5599 5599 5600 5600
5526 5526 5526 5525 5525 5525 5525 5525 5525 5526 5527 5529 5531 5533 5536 5538 5541 5543 5546 5548 5551 5554 5556 5559 5562 5564 5567 5569 5571 5574 5576 5577 5579 5580 5581 5582 5583 5583 5584 5584 5584 5584 5584
5516 5516 5516 5515 5515 5514 5514 5513 5513 5514 5515 5517 5519 5521 5524 5526 5529 5531 5533 5536 5538 5541 5543 5546 5549 5551 5553 5555 5557 5559 5561 5563 5564 5566 5567 5568 5568 5568 5569 5569 5569 5569 5569
5507 5506 5505 5505 5504 5504 5503 5503 5503 5503 5504 5506 5508 5510 5512 5515 5517 5519 5521 5523 5526 5528 5531 5533 5535 5538 5540 5541 5543 5545 5547 5548 5550 5551 5552 5552 5553 5554 5554 5555 5555 5555 5555
5498 5497 5496 5495 5495 5494 5494 5493 5493 5493 5494 5495 5497 5499 5501 5503 5505 5507 5509 5511 5514 5516 5518 5520 5522 5524 5526 5527 5529 5531 5533 5535 5536 5536 5537 5538 5538 5538 5538 5539 5540 5540 5540
5488 5488 5487 5486 5486 5485 5484 5484 5484 5484 5484 5485 5486 5488 5490 5492 5493 5495 5497 5499 5501 5503 5505 5507 5509 5511 5512 5514 5515 5516 5518 5519 5521 5522 5522 5523 5523 5523 5524 5524 5525 5525 5525
5479 5478 5478 5477 5476 5476 5475 5475 5474 5474 5474 5475 5475 5477 5478 5480 5482 5483 5485 5487 5489 5491 5492 5494 5495 5497 5499 5500 5501 5502 5504 5505 5506 5507 5508 5508 5508 5508 5509 5509 5509 5510 5510
5470 5469 5468 5468 5467 5466 5466 5465 5465 5464 5464 5465 5465 5466 5467 5469 5470 5472 5473 5475 5476 5478 5480 5481 5482 5484 5485 5486 5487 5488 5489 5490 5491 5492 5493 5493 5493 5494 5494 5495 5494 5495 5494
5461 5460 5459 5459 5458 5457 5456 5456 5455 5455 5455 5455 5455 5456 5457 5458 5460 5461 5462 5463 5464 5466 5467 5468 5470 5471 5472 5473 5474 5475 5475 5476 5476 5477 5478 5478 5479 5479 5479 5479 5479 5479 5479
5452 5451 5450 5450 5449 5448 5447 5447 5446 5446 5446 5446 5445 5446 5447 5448 5449 5450 5450 5452 5453 5454 5455 5456 5457 5458 5459 5460 5461 5461 5461 5462 5462 5463 5463 5464 5464 5464 5464 5464 5464 5464 5463
5443 5442 5442 5441 5440 5439 5438 5437 5436 5436 5436 5436 5436 5436 5437 5437 5438 5439 5439 5440 5441 5442 5442 5443 5444 5445 5446 5446 5447 5447 5447 5447 5448 5448 5448 5449 5449 5449 5449 5449 5449 5448 5448